QPF
0.00 0.00 0.00 0.00 0.00 0.00 0.00 0.00 0.00 0.00 0.00 0.00 0.00 0.01 0.01 0.01 0.01 0.00 0.00 0.00 0.00 0.00 0.00 0.00 0.00 0.00 0.00 0.00 0.00 0.00 0.00 0.00 0.00 0.00 0.00 0.00 0.00 0.00 0.00 0.00 0.00 0.00 0.00
0.00 0.00 0.00 0.00 0.00 0.00 0.00 0.00 0.00 0.00 0.00 0.00 0.00 0.01 0.01 0.01 0.01 0.00 0.00 0.00 0.00 0.00 0.00 0.00 0.00 0.00 0.00 0.00 0.00 0.00 0.00 0.00 0.00 0.00 0.00 0.00 0.00 0.00 0.00 0.00 0.00 0.00 0.00
0.00 0.00 0.00 0.00 0.00 0.00 0.00 0.00 0.00 0.00 0.00 0.00 0.00 0.00 0.01 0.01 0.00 0.00 0.00 0.00 0.00 0.00 0.00 0.00 0.00 0.00 0.00 0.00 0.00 0.00 0.00 0.00 0.00 0.00 0.00 0.00 0.00 0.00 0.00 0.00 0.00 0.00 0.00
0.00 0.00 0.00 0.00 0.00 0.00 0.00 0.00 0.00 0.00 0.00 0.00 0.00 0.00 0.01 0.01 0.01 0.00 0.00 0.00 0.00 0.00 0.00 0.00 0.00 0.00 0.00 0.00 0.00 0.00 0.00 0.00 0.00 0.00 0.00 0.00 0.00 0.00 0.00 0.00 0.00 0.00 0.00
0.00 0.00 0.00 0.00 0.00 0.00 0.00 0.00 0.00 0.00 0.00 0.00 0.00 0.00 0.01 0.01 0.00 0.00 0.00 0.00 0.00 0.00 0.00 0.00 0.00 0.00 0.00 0.00 0.00 0.00 0.00 0.00 0.00 0.00 0.00 0.00 0.00 0.00 0.00 0.00 0.00 0.00 0.00
0.00 0.00 0.00 0.00 0.00 0.00 0.00 0.00 0.00 0.00 0.00 0.00 0.00 0.00 0.00 0.00 0.00 0.00 0.00 0.00 0.00 0.00 0.00 0.00 0.00 0.00 0.00 0.00 0.00 0.00 0.00 0.00 0.00 0.00 0.00 0.00 0.00 0.00 0.00 0.00 0.00 0.00 0.00
0.00 0.00 0.00 0.00 0.00 0.00 0.00 0.00 0.00 0.00 0.00 0.00 0.00 0.00 0.00 0.00 0.00 0.00 0.00 0.00 0.00 0.00 0.00 0.00 0.00 0.00 0.00 0.00 0.00 0.00 0.00 0.00 0.00 0.00 0.00 0.00 0.00 0.00 0.00 0.00 0.00 0.00 0.00
0.00 0.00 0.00 0.00 0.00 0.00 0.00 0.00 0.00 0.00 0.00 0.00 0.00 0.00 0.00 0.00 0.00 0.00 0.00 0.00 0.00 0.00 0.00 0.00 0.00 0.00 0.00 0.00 0.00 0.00 0.00 0.00 0.00 0.00 0.00 0.00 0.00 0.00 0.00 0.00 0.00 0.00 0.00
0.00 0.00 0.00 0.00 0.00 0.00 0.00 0.00 0.00 0.00 0.00 0.00 0.00 0.00 0.00 0.00 0.00 0.00 0.00 0.00 0.00 0.00 0.00 0.00 0.00 0.00 0.00 0.00 0.00 0.00 0.00 0.00 0.00 0.00 0.00 0.00 0.00 0.00 0.00 0.00 0.00 0.00 0.00
0.00 0.00 0.00 0.00 0.00 0.00 0.00 0.00 0.00 0.00 0.00 0.00 0.00 0.00 0.00 0.00 0.00 0.00 0.00 0.00 0.00 0.00 0.00 0.00 0.00 0.00 0.00 0.00 0.00 0.00 0.00 0.00 0.00 0.00 0.00 0.00 0.00 0.00 0.00 0.00 0.00 0.00 0.00
0.00 0.00 0.00 0.00 0.00 0.00 0.00 0.00 0.00 0.00 0.00 0.00 0.00 0.00 0.00 0.00 0.00 0.00 0.00 0.00 0.00 0.00 0.00 0.00 0.00 0.00 0.00 0.00 0.00 0.00 0.00 0.00 0.00 0.00 0.00 0.00 0.00 0.00 0.00 0.00 0.00 0.00 0.00
0.00 0.00 0.00 0.00 0.00 0.00 0.00 0.00 0.00 0.00 0.00 0.00 0.00 0.00 0.00 0.00 0.00 0.00 0.00 0.00 0.00 0.00 0.00 0.00 0.00 0.00 0.00 0.00 0.00 0.00 0.00 0.00 0.00 0.00 0.00 0.00 0.00 0.00 0.00 0.00 0.00 0.00 0.00
0.00 0.00 0.00 0.00 0.00 0.00 0.00 0.00 0.00 0.00 0.00 0.00 0.00 0.00 0.00 0.00 0.00 0.00 0.00 0.00 0.00 0.00 0.00 0.00 0.00 0.00 0.00 0.00 0.00 0.00 0.00 0.00 0.00 0.00 0.00 0.00 0.00 0.00 0.00 0.00 0.00 0.00 0.00
0.01 0.00 0.00 0.00 0.00 0.00 0.00 0.00 0.00 0.00 0.00 0.00 0.00 0.00 0.00 0.00 0.00 0.00 0.00 0.00 0.00 0.00 0.00 0.00 0.00 0.00 0.00 0.00 0.00 0.00 0.00 0.00 0.00 0.00 0.00 0.00 0.00 0.00 0.00 0.00 0.00 0.00 0.00
0.00 0.00 0.00 0.00 0.00 0.00 0.00 0.00 0.00 0.00 0.00 0.00 0.00 0.00 0.00 0.00 0.00 0.00 0.00 0.00 0.00 0.00 0.00 0.00 0.00 0.00 0.00 0.00 0.00 0.00 0.00 0.00 0.00 0.00 0.00 0.00 0.00 0.00 0.00 0.01 0.01 0.01 0.01
0.00 0.00 0.00 0.00 0.00 0.00 0.00 0.00 0.00 0.00 0.00 0.00 0.00 0.00 0.00 0.00 0.00 0.00 0.00 0.00 0.00 0.00 0.00 0.00 0.00 0.00 0.00 0.00 0.00 0.00 0.00 0.00 0.00 0.00 0.00 0.00 0.00 0.00 0.00 0.00 0.01 0.02 0.03
0.00 0.00 0.00 0.00 0.00 0.00 0.00 0.00 0.00 0.00 0.00 0.00 0.00 0.00 0.00 0.00 0.00 0.00 0.00 0.00 0.00 0.00 0.00 0.00 0.00 0.00 0.00 0.00 0.00 0.00 0.00 0.00 0.00 0.00 0.00 0.00 0.00 0.00 0.00 0.00 0.01 0.02 0.03
0.00 0.00 0.00 0.00 0.00 0.00 0.00 0.00 0.00 0.00 0.00 0.00 0.00 0.00 0.00 0.00 0.00 0.00 0.00 0.00 0.00 0.00 0.00 0.00 0.00 0.00 0.00 0.00 0.00 0.00 0.00 0.00 0.00 0.00 0.00 0.00 0.00 0.00 0.00 0.02 0.03 0.02 0.01
0.00 0.00 0.00 0.00 0.00 0.00 0.00 0.00 0.00 0.00 0.00 0.00 0.00 0.00 0.00 0.00 0.00 0.00 0.00 0.00 0.00 0.00 0.00 0.00 0.00 0.00 0.00 0.00 0.00 0.00 0.00 0.00 0.00 0.00 0.00 0.00 0.00 0.00 0.02 0.04 0.04 0.01 0.00
0.00 0.00 0.00 0.00 0.00 0.00 0.00 0.00 0.00 0.00 0.00 0.00 0.00 0.00 0.00 0.00 0.00 0.00 0.00 0.00 0.00 0.00 0.00 0.00 0.00 0.00 0.00 0.00 0.00 0.00 0.00 0.00 0.00 0.00 0.00 0.00 0.00 0.02 0.03 0.03 0.01 0.00 0.00
0.00 0.00 0.00 0.00 0.00 0.00 0.00 0.00 0.00 0.00 0.00 0.00 0.00 0.00 0.00 0.00 0.00 0.00 0.00 0.00 0.00 0.00 0.00 0.00 0.00 0.00 0.00 0.00 0.00 0.00 0.00 0.00 0.00 0.00 0.00 0.00 0.01 0.02 0.02 0.01 0.00 0.01 0.02
0.00 0.00 0.00 0.00 0.00 0.00 0.00 0.00 0.00 0.00 0.00 0.00 0.00 0.00 0.00 0.00 0.00 0.00 0.00 0.00 0.00 0.00 0.00 0.00 0.00 0.00 0.00 0.00 0.00 0.00 0.01 0.01 0.00 0.00 0.00 0.00 0.01 0.01 0.00 0.00 0.00 0.01 0.01
0.00 0.00 0.00 0.00 0.00 0.00 0.00 0.00 0.00 0.00 0.00 0.00 0.00 0.00 0.00 0.00 0.00 0.00 0.00 0.00 0.00 0.00 0.00 0.00 0.00 0.00 0.00 0.00 0.00 0.00 0.01 0.01 0.01 0.00 0.01 0.01 0.01 0.00 0.00 0.00 0.00 0.00 0.00
0.00 0.00 0.00 0.00 0.00 0.00 0.00 0.00 0.00 0.00 0.00 0.00 0.00 0.00 0.00 0.00 0.00 0.00 0.00 0.00 0.00 0.00 0.00 0.00 0.00 0.00 0.00 0.00 0.00 0.00 0.00 0.00 0.01 0.01 0.00 0.00 0.00 0.00 0.00 0.00 0.00 0.00 0.00
0.00 0.00 0.00 0.00 0.00 0.00 0.00 0.00 0.00 0.00 0.00 0.00 0.00 0.00 0.00 0.00 0.00 0.00 0.00 0.00 0.00 0.00 0.00 0.00 0.00 0.00 0.00 0.00 0.00 0.01 0.01 0.01 0.01 0.01 0.00 0.00 0.00 0.00 0.00 0.00 0.00 0.00 0.00
0.00 0.00 0.00 0.00 0.00 0.00 0.00 0.00 0.00 0.00 0.00 0.00 0.00 0.00 0.00 0.00 0.00 0.00 0.00 0.00 0.00 0.00 0.00 0.00 0.00 0.00 0.00 0.00 0.00 0.01 0.01 0.01 0.01 0.00 0.00 0.00 0.00 0.00 0.00 0.00 0.00 0.00 0.00
MSLP
1007.67 1007.62 1007.59 1007.55 1007.52 1007.53 1007.62 1007.81 1008.13 1008.59 1009.17 1009.86 1010.63 1011.42 1012.20 1012.95 1013.62 1014.22 1014.75 1015.22 1015.65 1016.05 1016.43 1016.81 1017.19 1017.54 1017.87 1018.15 1018.37 1018.52 1018.57 1018.54 1018.43 1018.24 1018.00 1017.73 1017.45 1017.18 1016.95 1016.76 1016.63 1016.54 1016.47
1007.22 1007.29 1007.36 1007.41 1007.45 1007.50 1007.61 1007.81 1008.14 1008.61 1009.22 1009.94 1010.74 1011.57 1012.40 1013.18 1013.89 1014.53 1015.09 1015.59 1016.04 1016.47 1016.87 1017.26 1017.63 1017.97 1018.28 1018.55 1018.75 1018.90 1018.97 1018.97 1018.90 1018.76 1018.57 1018.32 1018.05 1017.75 1017.45 1017.17 1016.92 1016.70 1016.52
1006.63 1006.83 1007.02 1007.18 1007.31 1007.44 1007.60 1007.84 1008.20 1008.70 1009.33 1010.08 1010.91 1011.77 1012.63 1013.43 1014.18 1014.84 1015.43 1015.95 1016.43 1016.87 1017.28 1017.67 1018.03 1018.36 1018.65 1018.89 1019.09 1019.23 1019.33 1019.37 1019.36 1019.28 1019.15 1018.95 1018.69 1018.38 1018.01 1017.63 1017.25 1016.89 1016.56
1005.87 1006.20 1006.53 1006.82 1007.08 1007.31 1007.55 1007.86 1008.27 1008.81 1009.47 1010.25 1011.10 1011.99 1012.86 1013.69 1014.45 1015.13 1015.74 1016.28 1016.78 1017.23 1017.65 1018.04 1018.39 1018.70 1018.96 1019.18 1019.37 1019.51 1019.63 1019.71 1019.76 1019.76 1019.70 1019.56 1019.32 1019.00 1018.59 1018.11 1017.61 1017.10 1016.62
1004.98 1005.44 1005.92 1006.36 1006.75 1007.10 1007.46 1007.85 1008.33 1008.93 1009.63 1010.44 1011.32 1012.22 1013.10 1013.94 1014.71 1015.40 1016.02 1016.58 1017.09 1017.56 1017.99 1018.37 1018.71 1019.00 1019.24 1019.43 1019.59 1019.73 1019.86 1019.98 1020.08 1020.14 1020.15 1020.06 1019.86 1019.54 1019.09 1018.55 1017.94 1017.31 1016.69
1004.05 1004.64 1005.25 1005.84 1006.37 1006.86 1007.33 1007.83 1008.40 1009.05 1009.81 1010.65 1011.55 1012.46 1013.35 1014.20 1014.97 1015.66 1016.29 1016.87 1017.39 1017.87 1018.30 1018.68 1019.00 1019.27 1019.47 1019.64 1019.77 1019.89 1020.02 1020.15 1020.28 1020.39 1020.44 1020.40 1020.24 1019.93 1019.47 1018.88 1018.20 1017.47 1016.74
1003.19 1003.88 1004.62 1005.35 1006.02 1006.63 1007.23 1007.83 1008.48 1009.20 1010.01 1010.89 1011.80 1012.73 1013.62 1014.46 1015.24 1015.94 1016.57 1017.15 1017.68 1018.16 1018.59 1018.96 1019.27 1019.51 1019.68 1019.80 1019.90 1019.98 1020.08 1020.21 1020.34 1020.46 1020.54 1020.54 1020.40 1020.11 1019.66 1019.05 1018.33 1017.53 1016.72
1002.50 1003.28 1004.13 1004.96 1005.75 1006.49 1007.19 1007.88 1008.62 1009.40 1010.26 1011.16 1012.09 1013.02 1013.92 1014.76 1015.53 1016.23 1016.86 1017.44 1017.96 1018.44 1018.87 1019.23 1019.51 1019.72 1019.85 1019.93 1019.97 1020.01 1020.06 1020.14 1020.25 1020.37 1020.45 1020.45 1020.34 1020.07 1019.63 1019.02 1018.29 1017.46 1016.60
1002.06 1002.92 1003.84 1004.76 1005.64 1006.47 1007.26 1008.04 1008.83 1009.67 1010.56 1011.49 1012.44 1013.37 1014.26 1015.09 1015.85 1016.54 1017.16 1017.73 1018.25 1018.72 1019.13 1019.46 1019.72 1019.89 1019.98 1020.00 1019.98 1019.96 1019.95 1019.98 1020.04 1020.12 1020.18 1020.17 1020.06 1019.81 1019.38 1018.79 1018.07 1017.24 1016.36
1001.90 1002.81 1003.79 1004.77 1005.72 1006.62 1007.47 1008.31 1009.16 1010.04 1010.95 1011.89 1012.83 1013.76 1014.64 1015.45 1016.19 1016.87 1017.47 1018.02 1018.52 1018.97 1019.35 1019.66 1019.87 1020.00 1020.04 1020.02 1019.94 1019.85 1019.78 1019.74 1019.74 1019.76 1019.77 1019.74 1019.62 1019.36 1018.95 1018.39 1017.68 1016.86 1015.98
1002.00 1002.94 1003.96 1004.99 1005.99 1006.93 1007.83 1008.71 1009.59 1010.49 1011.41 1012.34 1013.28 1014.18 1015.04 1015.83 1016.55 1017.19 1017.77 1018.29 1018.76 1019.17 1019.52 1019.78 1019.96 1020.05 1020.05 1019.97 1019.84 1019.69 1019.56 1019.45 1019.38 1019.34 1019.30 1019.22 1019.07 1018.80 1018.39 1017.84 1017.15 1016.35 1015.48
1002.27 1003.25 1004.30 1005.37 1006.39 1007.37 1008.30 1009.21 1010.10 1011.01 1011.92 1012.84 1013.75 1014.63 1015.46 1016.22 1016.90 1017.51 1018.05 1018.53 1018.95 1019.32 1019.62 1019.85 1019.98 1020.03 1019.99 1019.87 1019.70 1019.51 1019.31 1019.15 1019.01 1018.90 1018.80 1018.67 1018.47 1018.17 1017.75 1017.20 1016.52 1015.74 1014.88
1002.62 1003.64 1004.73 1005.82 1006.87 1007.88 1008.83 1009.76 1010.66 1011.56 1012.46 1013.36 1014.24 1015.08 1015.86 1016.58 1017.22 1017.79 1018.29 1018.73 1019.11 1019.42 1019.68 1019.85 1019.95 1019.95 1019.88 1019.73 1019.52 1019.30 1019.06 1018.84 1018.65 1018.48 1018.31 1018.11 1017.86 1017.52 1017.07 1016.51 1015.83 1015.05 1014.21
1002.97 1004.04 1005.15 1006.27 1007.36 1008.39 1009.37 1010.30 1011.21 1012.10 1012.99 1013.85 1014.69 1015.49 1016.24 1016.91 1017.51 1018.04 1018.50 1018.89 1019.22 1019.49 1019.69 1019.82 1019.87 1019.84 1019.73 1019.55 1019.33 1019.07 1018.81 1018.55 1018.30 1018.07 1017.84 1017.57 1017.26 1016.87 1016.38 1015.79 1015.09 1014.32 1013.49
1003.28 1004.38 1005.53 1006.68 1007.79 1008.85 1009.85 1010.80 1011.71 1012.60 1013.46 1014.30 1015.10 1015.86 1016.57 1017.21 1017.77 1018.27 1018.69 1019.04 1019.33 1019.55 1019.70 1019.78 1019.78 1019.71 1019.57 1019.37 1019.11 1018.83 1018.54 1018.24 1017.95 1017.66 1017.36 1017.03 1016.65 1016.20 1015.66 1015.04 1014.33 1013.56 1012.73
1003.53 1004.66 1005.84 1007.01 1008.15 1009.23 1010.25 1011.22 1012.14 1013.02 1013.86 1014.67 1015.45 1016.18 1016.85 1017.46 1018.00 1018.47 1018.86 1019.18 1019.43 1019.61 1019.72 1019.74 1019.70 1019.58 1019.40 1019.16 1018.88 1018.57 1018.24 1017.91 1017.57 1017.22 1016.85 1016.45 1016.00 1015.49 1014.91 1014.26 1013.54 1012.77 1011.96
1003.75 1004.90 1006.09 1007.28 1008.43 1009.54 1010.58 1011.56 1012.48 1013.36 1014.19 1014.98 1015.74 1016.45 1017.10 1017.70 1018.22 1018.67 1019.05 1019.34 1019.56 1019.70 1019.75 1019.73 1019.63 1019.46 1019.23 1018.94 1018.62 1018.27 1017.90 1017.52 1017.12 1016.72 1016.29 1015.82 1015.31 1014.75 1014.12 1013.45 1012.73 1011.97 1011.19
1004.03 1005.18 1006.36 1007.54 1008.70 1009.80 1010.85 1011.84 1012.76 1013.64 1014.46 1015.25 1015.99 1016.69 1017.33 1017.92 1018.44 1018.88 1019.24 1019.52 1019.71 1019.80 1019.81 1019.72 1019.56 1019.33 1019.03 1018.69 1018.32 1017.91 1017.49 1017.06 1016.61 1016.15 1015.66 1015.13 1014.57 1013.96 1013.31 1012.62 1011.90 1011.17 1010.42
1004.43 1005.55 1006.70 1007.86 1008.99 1010.09 1011.13 1012.11 1013.04 1013.90 1014.72 1015.50 1016.23 1016.92 1017.57 1018.15 1018.67 1019.10 1019.45 1019.71 1019.86 1019.91 1019.86 1019.71 1019.48 1019.17 1018.81 1018.40 1017.97 1017.51 1017.04 1016.55 1016.05 1015.53 1014.99 1014.41 1013.81 1013.17 1012.50 1011.81 1011.11 1010.40 1009.70
1005.01 1006.08 1007.18 1008.29 1009.39 1010.45 1011.47 1012.44 1013.35 1014.20 1015.01 1015.78 1016.51 1017.19 1017.83 1018.40 1018.91 1019.34 1019.67 1019.89 1020.00 1019.99 1019.88 1019.66 1019.35 1018.97 1018.54 1018.07 1017.57 1017.06 1016.54 1016.01 1015.47 1014.91 1014.32 1013.71 1013.08 1012.42 1011.75 1011.07 1010.39 1009.72 1009.05
1005.79 1006.79 1007.83 1008.87 1009.92 1010.94 1011.92 1012.86 1013.74 1014.58 1015.37 1016.12 1016.84 1017.51 1018.13 1018.69 1019.17 1019.57 1019.86 1020.04 1020.09 1020.02 1019.84 1019.55 1019.16 1018.72 1018.22 1017.69 1017.15 1016.60 1016.04 1015.48 1014.91 1014.32 1013.72 1013.09 1012.45 1011.79 1011.12 1010.45 1009.79 1009.15 1008.52
1006.76 1007.68 1008.64 1009.62 1010.60 1011.56 1012.50 1013.39 1014.25 1015.05 1015.82 1016.55 1017.23 1017.88 1018.47 1018.99 1019.44 1019.79 1020.03 1020.14 1020.13 1019.98 1019.72 1019.35 1018.90 1018.39 1017.85 1017.28 1016.71 1016.13 1015.57 1015.00 1014.43 1013.84 1013.23 1012.60 1011.96 1011.30 1010.65 1010.00 1009.36 1008.73 1008.13
1007.85 1008.71 1009.59 1010.50 1011.42 1012.32 1013.20 1014.05 1014.86 1015.63 1016.35 1017.04 1017.69 1018.29 1018.84 1019.31 1019.70 1019.98 1020.14 1020.18 1020.08 1019.86 1019.52 1019.08 1018.57 1018.02 1017.44 1016.85 1016.27 1015.71 1015.15 1014.60 1014.04 1013.47 1012.88 1012.27 1011.64 1011.00 1010.36 1009.72 1009.10 1008.49 1007.88
1009.00 1009.80 1010.63 1011.48 1012.33 1013.18 1014.00 1014.80 1015.55 1016.27 1016.95 1017.59 1018.18 1018.72 1019.20 1019.61 1019.92 1020.12 1020.20 1020.14 1019.96 1019.66 1019.25 1018.75 1018.20 1017.61 1017.02 1016.44 1015.88 1015.34 1014.82 1014.30 1013.78 1013.25 1012.69 1012.10 1011.49 1010.87 1010.24 1009.61 1008.99 1008.38 1007.77
1010.13 1010.90 1011.69 1012.49 1013.29 1014.08 1014.85 1015.59 1016.28 1016.94 1017.56 1018.14 1018.66 1019.13 1019.54 1019.86 1020.09 1020.20 1020.19 1020.05 1019.78 1019.40 1018.93 1018.39 1017.80 1017.21 1016.62 1016.06 1015.53 1015.04 1014.56 1014.10 1013.62 1013.13 1012.61 1012.05 1011.47 1010.86 1010.24 1009.62 1008.99 1008.37 1007.74
1011.21 1011.96 1012.72 1013.48 1014.24 1014.98 1015.69 1016.37 1017.00 1017.59 1018.14 1018.64 1019.10 1019.49 1019.82 1020.05 1020.19 1020.22 1020.12 1019.90 1019.57 1019.13 1018.60 1018.03 1017.43 1016.84 1016.27 1015.75 1015.26 1014.81 1014.39 1013.97 1013.55 1013.09 1012.60 1012.07 1011.51 1010.91 1010.29 1009.66 1009.02 1008.38 1007.73
Thickness
5668 5671 5673 5677 5680 5681 5682 5683 5682 5679 5677 5672 5666 5659 5652 5648 5645 5643 5640 5637 5634 5630 5626 5621 5617 5614 5609 5604 5602 5599 5595 5591 5589 5588 5588 5589 5587 5584 5581 5576 5572 5569 5566
5661 5663 5665 5669 5672 5674 5675 5675 5675 5673 5671 5669 5664 5656 5647 5639 5635 5633 5630 5627 5625 5621 5617 5612 5607 5603 5599 5594 5590 5587 5582 5577 5574 5570 5568 5567 5570 5571 5571 5564 5561 5557 5552
5658 5659 5659 5662 5664 5666 5668 5669 5667 5665 5663 5660 5655 5647 5639 5632 5626 5622 5619 5616 5614 5611 5607 5602 5598 5593 5588 5583 5578 5574 5569 5563 5559 5555 5550 5545 5543 5547 5555 5553 5548 5542 5536
5657 5658 5657 5657 5659 5660 5661 5661 5660 5658 5655 5653 5651 5646 5639 5627 5619 5614 5610 5606 5603 5600 5596 5592 5587 5582 5576 5571 5566 5561 5556 5551 5544 5539 5535 5529 5525 5522 5532 5538 5534 5529 5523
5656 5658 5658 5659 5657 5654 5653 5653 5652 5649 5647 5645 5644 5640 5630 5620 5610 5605 5601 5596 5592 5589 5585 5581 5575 5570 5564 5558 5553 5548 5543 5537 5531 5525 5520 5515 5510 5505 5501 5512 5516 5514 5509
5654 5657 5656 5653 5648 5646 5645 5645 5644 5640 5638 5636 5634 5631 5622 5612 5604 5597 5592 5586 5582 5577 5573 5568 5563 5558 5552 5546 5540 5535 5529 5524 5518 5512 5506 5500 5495 5490 5484 5486 5494 5497 5496
5648 5649 5648 5647 5644 5641 5639 5638 5636 5632 5629 5627 5623 5619 5614 5607 5599 5591 5584 5578 5572 5566 5561 5556 5551 5546 5540 5534 5528 5523 5517 5511 5505 5499 5493 5486 5480 5474 5468 5466 5472 5477 5481
5641 5644 5646 5646 5642 5638 5634 5632 5629 5624 5620 5616 5611 5606 5602 5596 5588 5582 5576 5569 5562 5556 5550 5545 5540 5534 5528 5523 5517 5511 5505 5499 5493 5487 5480 5473 5466 5459 5452 5446 5445 5455 5465
5633 5637 5639 5640 5637 5633 5630 5626 5622 5616 5611 5606 5601 5594 5590 5585 5577 5570 5565 5558 5552 5546 5540 5534 5528 5523 5517 5511 5505 5499 5493 5487 5480 5474 5467 5459 5452 5445 5437 5430 5421 5417 5430
5623 5628 5631 5632 5629 5626 5621 5616 5613 5608 5601 5596 5592 5585 5579 5573 5567 5561 5554 5547 5542 5536 5530 5523 5517 5511 5505 5499 5493 5487 5481 5475 5468 5461 5454 5446 5439 5432 5424 5415 5406 5396 5393
5620 5623 5624 5621 5618 5615 5611 5606 5602 5598 5592 5587 5581 5574 5568 5562 5556 5550 5543 5538 5532 5526 5519 5513 5506 5500 5494 5488 5481 5475 5469 5462 5455 5448 5441 5434 5427 5419 5410 5401 5391 5381 5369
5614 5614 5613 5610 5608 5605 5601 5596 5593 5589 5583 5577 5571 5564 5558 5552 5546 5539 5533 5528 5522 5515 5509 5502 5495 5489 5483 5476 5470 5464 5458 5450 5443 5436 5429 5421 5414 5405 5396 5386 5376 5364 5351
5601 5601 5600 5599 5598 5595 5591 5586 5582 5578 5573 5568 5561 5554 5547 5541 5535 5529 5523 5518 5511 5504 5498 5491 5484 5478 5472 5466 5459 5453 5446 5438 5431 5423 5415 5407 5399 5390 5381 5370 5359 5347 5334
5591 5591 5591 5590 5588 5585 5581 5576 5571 5568 5564 5558 5551 5544 5537 5531 5526 5520 5514 5507 5501 5493 5486 5480 5473 5467 5461 5455 5449 5442 5435 5426 5418 5409 5400 5392 5383 5373 5364 5354 5341 5327 5314
5584 5585 5584 5581 5579 5575 5570 5567 5562 5559 5555 5548 5541 5534 5528 5522 5516 5510 5503 5496 5490 5483 5475 5469 5462 5455 5450 5444 5438 5431 5424 5414 5405 5396 5387 5377 5368 5358 5346 5334 5321 5306 5293
5584 5581 5578 5574 5571 5568 5564 5559 5554 5549 5545 5539 5532 5525 5519 5513 5506 5499 5492 5485 5478 5471 5464 5457 5450 5443 5438 5432 5427 5421 5412 5402 5392 5383 5374 5363 5352 5340 5329 5314 5300 5286 5275
5583 5580 5575 5571 5567 5562 5559 5552 5546 5541 5536 5530 5523 5516 5510 5503 5495 5489 5481 5474 5466 5459 5452 5445 5438 5431 5425 5421 5415 5408 5400 5389 5378 5368 5359 5349 5335 5322 5309 5299 5289 5277 5265
5582 5577 5571 5565 5559 5554 5550 5544 5539 5533 5527 5520 5513 5507 5500 5492 5484 5477 5470 5462 5455 5447 5440 5433 5427 5419 5413 5409 5403 5397 5388 5376 5364 5353 5341 5330 5318 5304 5294 5288 5279 5268 5259
5581 5575 5568 5561 5554 5549 5544 5538 5530 5524 5518 5511 5504 5497 5490 5482 5474 5466 5458 5451 5443 5436 5429 5422 5415 5408 5402 5397 5391 5385 5374 5363 5352 5338 5324 5310 5301 5291 5282 5275 5268 5262 5257
5576 5568 5561 5554 5548 5541 5538 5531 5522 5515 5508 5501 5494 5486 5479 5471 5463 5454 5447 5439 5432 5425 5418 5411 5404 5397 5390 5385 5379 5371 5361 5351 5340 5325 5308 5293 5283 5276 5270 5265 5260 5257 5256
5566 5560 5554 5547 5541 5535 5531 5523 5514 5505 5498 5490 5482 5474 5467 5459 5451 5443 5435 5428 5421 5414 5407 5400 5393 5386 5378 5372 5363 5354 5343 5332 5322 5308 5294 5281 5272 5267 5262 5258 5253 5252 5254
5554 5550 5544 5536 5530 5527 5522 5512 5501 5493 5486 5479 5470 5462 5454 5448 5440 5431 5424 5417 5410 5402 5395 5388 5382 5374 5365 5356 5348 5339 5327 5315 5303 5292 5280 5271 5266 5261 5256 5252 5251 5252 5251
5543 5538 5533 5525 5518 5515 5511 5501 5489 5483 5475 5467 5458 5450 5442 5435 5428 5420 5413 5406 5398 5390 5384 5378 5371 5364 5354 5343 5334 5324 5312 5300 5288 5278 5269 5262 5257 5253 5249 5247 5248 5247 5244
5531 5527 5523 5515 5506 5500 5495 5489 5480 5472 5464 5455 5446 5438 5431 5423 5416 5410 5402 5394 5386 5379 5374 5367 5360 5351 5341 5330 5321 5311 5299 5287 5276 5267 5260 5254 5248 5245 5244 5244 5242 5241 5240
5521 5518 5512 5503 5493 5487 5481 5474 5468 5461 5452 5442 5434 5427 5420 5411 5404 5398 5390 5383 5376 5368 5363 5355 5346 5337 5328 5317 5306 5294 5283 5273 5264 5259 5252 5246 5242 5241 5240 5240 5239 5239 5239
5510 5504 5497 5490 5481 5475 5467 5460 5455 5449 5440 5431 5422 5415 5407 5400 5393 5386 5378 5373 5366 5359 5350 5341 5332 5322 5310 5301 5290 5278 5267 5259 5253 5248 5241 5238 5237 5237 5237 5237 5237 5237 5236